{"data":{"norad_id":58614,"intl_designator":"2023-201A","name":"COSMOS 2573","alt_names":[],"object_type":"PAYLOAD","status":"ACTIVE","operator":null,"country":"CIS","launch_date":"2023-12-21","launch_site_code":"PLMSC","launch_vehicle":null,"mission":null,"orbit_class":"UNKNOWN","rcs_meters":null,"size_class":null,"mass_kg":null,"dimensions":null,"purposes":[],"wikipedia_slug":null,"has_3d_model":false,"image_url":null,"decayed_at":null,"tle_current":{"epoch":"2026-05-25T05:09:04.482144Z","epoch_age_seconds":56474,"freshness":"FRESH","line1":"1 58614U 23201A   26145.21463521  .00003316  00000+0  13713-3 0  9994","line2":"2 58614  97.6260  94.2365 0003063  96.9256 263.2329 15.24697633134982","mean_motion":15.24697633,"eccentricity":0.0003063,"inclination_deg":97.626,"raan_deg":94.2365,"arg_perigee_deg":96.9256,"mean_anomaly_deg":263.2329,"bstar":0.00013713,"rev_number":13498,"period_min":94.444955434649,"perigee_km":489.58930464361,"apogee_km":493.79776282858,"semimajor_km":6869.8305337361,"source":"CELESTRAK","updated_at":"2026-05-25T13:38:00.841521Z"}}}